Waarnemingen

Advertentie
Mijn weer
Dunkerque, Frankrijk (7010): temperatuur & dauwpunt: 19.04.2018 02:00:00 - 25.04.2018 02:00:00 (CEST)Dunkerque, Frankrijk (7010): windsnelheid & windstoten: 19.04.2018 02:00:00 - 25.04.2018 02:00:00 (CEST)Dunkerque, Frankrijk (7010): windrichting: 19.04.2018 02:00:00 - 25.04.2018 02:00:00 (CEST)Dunkerque, Frankrijk (7010): luchtdruk: 19.04.2018 02:00:00 - 25.04.2018 02:00:00 (CEST)Dunkerque, Frankrijk (7010): zicht: 19.04.2018 02:00:00 - 25.04.2018 02:00:00 (CEST)Dunkerque, Frankrijk (7010): neerslag: 19.04.2018 02:00:00 - 25.04.2018 02:00:00 (CEST)
Datum & Tijd tt [°C] td [°C] ff [km/u] ff [kn] fx [km/u] fx [kn] dd ppp [hPa] vv [km] rr [mm]
25.04.2018 02:00:00 12,5 9,9 32 17 58 31 WZW 1009,6 - 0,0
25.04.2018 01:00:00 13,4 10,2 29 16 49 26 ZW 1009,8 - 0,0
25.04.2018 00:00:00 13,0 9,8 26 14 53 28 ZW 1010,7 - 0,0
24.04.2018 23:00:00 13,5 9,3 22 12 39 21 ZW 1011,4 - 0,0
24.04.2018 22:00:00 12,8 10,3 22 12 48 26 ZW 1012,0 - 0,0
24.04.2018 21:00:00 13,1 10,6 23 12 40 22 ZW 1012,6 - 0,0
24.04.2018 20:00:00 12,9 9,9 25 13 50 27 WZW 1013,1 - 0,0
24.04.2018 19:00:00 13,9 9,3 26 14 45 24 ZW 1013,5 - 0,0
24.04.2018 18:00:00 13,8 8,6 24 13 49 26 ZW 1014,2 - 0,0
24.04.2018 17:00:00 14,4 8,3 25 14 42 23 ZW 1014,7 - 0,0
24.04.2018 16:00:00 13,9 8,3 25 14 41 22 ZW 1015,6 - 0,0
24.04.2018 15:00:00 13,8 8,6 20 11 37 20 ZW 1016,4 - 0,0
24.04.2018 14:00:00 13,5 8,5 20 11 35 19 WZW 1017,0 - 0,0
24.04.2018 13:00:00 13,5 8,8 22 12 41 22 WZW 1017,7 - 0,0
24.04.2018 12:00:00 12,7 8,6 25 14 41 22 ZW 1017,5 - 0,0
24.04.2018 11:00:00 12,6 9,1 17 9 45 24 WZW 1017,4 10 0,0
24.04.2018 10:00:00 12,0 9,2 22 12 43 23 ZW 1017,3 - 0,0
24.04.2018 09:00:00 11,7 9,1 20 11 38 20 ZW 1016,9 - 0,0
24.04.2018 08:00:00 11,1 9,0 21 11 48 26 ZW 1016,5 8 0,0
24.04.2018 07:00:00 10,8 8,6 27 14 50 27 W 1016,5 - 0,0
24.04.2018 06:00:00 11,1 8,3 30 16 53 29 WZW 1016,3 - 0,0
24.04.2018 05:00:00 11,0 7,3 27 14 47 26 WZW 1016,2 12 0,0
24.04.2018 04:00:00 11,2 7,1 22 12 47 25 ZW 1016,2 - 0,0
24.04.2018 03:00:00 11,1 6,2 25 14 48 26 WZW 1016,3 - 0,0
24.04.2018 02:00:00 11,0 5,7 23 13 48 26 ZW 1016,6 - 0,0
24.04.2018 01:00:00 11,1 6,4 22 12 47 25 WZW 1016,9 - 0,0
24.04.2018 00:00:00 10,9 6,4 21 12 49 26 WZW 1017,3 - 0,0
23.04.2018 23:00:00 10,9 6,2 25 14 49 27 ZW 1017,5 - 0,0
23.04.2018 22:00:00 11,1 5,8 24 13 44 24 ZW 1017,8 - 0,0
23.04.2018 21:00:00 11,4 6,1 25 14 52 28 ZW 1017,3 - 0,0
23.04.2018 20:00:00 11,9 6,0 29 16 56 30 WZW 1017,5 20 0,0
23.04.2018 19:00:00 12,4 6,0 29 16 50 27 ZW 1017,5 - 0,0
23.04.2018 18:00:00 13,9 5,5 29 16 52 28 ZW 1017,4 - 0,0
23.04.2018 17:00:00 13,7 5,3 29 16 51 28 ZW 1017,6 - 0,0
23.04.2018 16:00:00 14,0 5,9 29 16 48 26 WZW 1018,2 - 0,0
23.04.2018 15:00:00 13,9 8,1 19 11 45 24 WZW 1018,2 - 0,0
23.04.2018 14:00:00 13,5 6,4 23 13 42 23 ZW 1017,6 20 0,0
23.04.2018 13:00:00 12,1 7,6 29 16 40 22 W 1017,7 - 0,0
23.04.2018 12:00:00 11,6 7,3 28 15 36 20 WNW 1017,7 - 0,0
23.04.2018 11:00:00 12,2 7,3 27 15 42 23 W 1017,4 - 0,0
23.04.2018 10:00:00 11,9 7,0 28 15 45 24 W 1016,9 - 0,0
23.04.2018 09:00:00 11,1 7,4 26 14 40 22 W 1016,3 - 0,0
23.04.2018 08:00:00 10,9 7,4 16 8 35 19 ZW 1015,7 6 0,0
23.04.2018 07:00:00 10,6 8,2 22 12 37 20 W 1015,0 - 0,0
23.04.2018 06:00:00 11,3 8,9 15 8 27 15 ZW 1014,6 - 0,0
23.04.2018 05:00:00 11,5 9,1 14 7 28 15 WZW 1014,4 20 0,0
23.04.2018 04:00:00 11,8 9,2 14 8 27 15 WZW 1014,0 - 0,0
23.04.2018 03:00:00 12,1 8,9 16 9 34 18 ZW 1013,4 - 0,0
23.04.2018 02:00:00 12,7 8,8 18 10 41 22 ZW 1013,2 15 0,0
23.04.2018 01:00:00 13,5 7,7 21 12 37 20 ZW 1012,8 - 0,0
23.04.2018 00:00:00 12,3 5,9 21 11 38 20 ZZW 1012,2 - 0,0
22.04.2018 23:00:00 14,6 2,1 22 12 43 23 ZW 1011,9 - 0,0
22.04.2018 22:00:00 14,8 7,8 24 13 43 23 ZW 1011,5 - 0,0
22.04.2018 21:00:00 16,2 8,4 25 14 45 25 ZW 1010,9 - 0,0
22.04.2018 20:00:00 18,3 8,5 24 13 53 29 ZW 1010,4 15 0,0
22.04.2018 19:00:00 19,6 8,6 31 17 62 34 ZW 1010,1 - 0,0
22.04.2018 18:00:00 20,7 8,0 31 17 55 30 WZW 1010,0 - 0,0
22.04.2018 17:00:00 22,3 8,0 27 15 52 28 WZW 1010,1 12 0,0
22.04.2018 16:00:00 23,0 7,5 22 12 44 24 ZW 1010,3 - 0,0
22.04.2018 15:00:00 16,9 11,2 23 13 36 20 W 1010,5 - 0,0
22.04.2018 14:00:00 16,8 11,7 17 9 26 14 W 1010,4 - 0,0
22.04.2018 13:00:00 14,7 10,1 16 8 24 13 WNW 1010,4 - 0,0
22.04.2018 12:00:00 17,3 9,9 16 8 29 16 W 1010,6 - 0,0
22.04.2018 11:00:00 20,8 13,0 16 9 25 14 Z 1010,8 - 0,0
22.04.2018 10:00:00 17,8 12,3 16 9 28 15 Z 1011,0 - 0,0
22.04.2018 09:00:00 17,0 11,5 13 7 32 17 ZZO 1011,3 - 0,0
22.04.2018 08:00:00 16,8 10,6 15 8 22 12 ZZO 1011,4 3,0 0,0
22.04.2018 07:00:00 16,2 10,7 18 10 23 13 ZO 1011,6 - 0,0
22.04.2018 06:00:00 16,1 10,8 15 8 20 11 ZO 1012,3 - 0,0
22.04.2018 05:00:00 16,5 10,6 4 2 10 5 OZO 1014,0 - 0,0
22.04.2018 04:00:00 16,4 10,5 8 5 42 23 WZW 1015,0 - 0,0
22.04.2018 03:00:00 16,8 10,4 19 10 25 14 OZO 1014,3 - 0,0
22.04.2018 02:00:00 17,2 10,8 19 10 25 14 OZO 1015,1 10 0,0
22.04.2018 01:00:00 16,9 10,7 15 8 23 12 ZO 1015,8 - 0,0
22.04.2018 00:00:00 17,4 10,7 19 10 29 16 OZO 1015,7 - 0,0
21.04.2018 23:00:00 12,6 10,7 7 4 10 5 O 1016,6 - 0,0
21.04.2018 22:00:00 12,5 10,2 8 4 16 9 O 1017,3 - 0,0
21.04.2018 21:00:00 12,6 9,8 13 7 19 11 ONO 1017,5 - 0,0
21.04.2018 20:00:00 12,8 9,8 16 8 19 10 ONO 1017,6 - 0,0
21.04.2018 19:00:00 13,5 9,9 12 7 19 10 NO 1018,4 - 0,0
21.04.2018 18:00:00 14,0 10,0 14 8 19 10 NO 1019,1 - 0,0
21.04.2018 17:00:00 14,1 9,9 14 8 18 10 NO 1019,6 6 0,0
21.04.2018 16:00:00 14,6 10,2 16 8 20 11 ONO 1020,3 - 0,0
21.04.2018 15:00:00 14,5 9,9 16 9 21 11 ONO 1021,0 - 0,0
21.04.2018 14:00:00 14,4 10,0 10 6 21 11 NO 1021,6 8 0,0
21.04.2018 13:00:00 14,1 9,7 16 9 23 12 NO 1022,1 - 0,0
21.04.2018 12:00:00 14,3 9,7 10 5 15 8 NO 1022,5 - 0,0
21.04.2018 11:00:00 14,3 9,5 8 4 11 6 NO 1022,7 - 0,0
21.04.2018 10:00:00 14,0 9,6 3 1 12 6 NO 1022,7 - 0,0
21.04.2018 09:00:00 12,4 9,8 8 4 11 6 O 1022,8 - 0,0
21.04.2018 08:00:00 11,1 9,5 7 4 13 7 O 1023,0 - 0,0
21.04.2018 07:00:00 10,4 9,2 8 5 14 8 ONO 1022,9 - 0,0
21.04.2018 06:00:00 10,3 8,9 11 6 14 7 NO 1022,5 - 0,0
21.04.2018 05:00:00 10,3 8,7 5 3 9 5 NO 1022,8 7 0,0
21.04.2018 04:00:00 10,7 9,0 5 3 9 5 NO 1022,9 - 0,0
21.04.2018 03:00:00 10,5 8,6 4 2 10 6 ONO 1023,0 - 0,0
21.04.2018 02:00:00 10,7 9,3 7 4 11 6 ONO 1023,4 8 0,0
21.04.2018 01:00:00 10,8 9,2 7 4 12 7 NO 1023,7 - 0,0
21.04.2018 00:00:00 10,7 8,8 10 5 16 9 ONO 1023,7 - 0,0
20.04.2018 23:00:00 10,9 8,6 11 6 18 10 NO 1023,7 - 0,0
20.04.2018 22:00:00 12,0 9,2 6 4 9 5 ONO 1023,6 - 0,0
20.04.2018 21:00:00 12,3 8,8 6 3 14 8 NO 1023,1 - 0,0
20.04.2018 20:00:00 13,3 8,6 11 6 30 16 N 1022,9 10 0,0
20.04.2018 19:00:00 15,3 9,0 18 10 25 14 W 1022,7 - 0,0
20.04.2018 18:00:00 15,3 8,8 15 8 24 13 WNW 1022,8 - 0,0
20.04.2018 17:00:00 17,0 7,9 16 8 22 12 WNW 1023,1 11 0,0
20.04.2018 16:00:00 17,3 7,6 14 7 21 11 WNW 1023,4 - 0,0
20.04.2018 15:00:00 17,0 7,6 14 8 21 11 WNW 1023,6 - 0,0
20.04.2018 14:00:00 16,4 8,6 16 9 21 12 WNW 1023,7 - 0,0
20.04.2018 13:00:00 17,5 9,9 14 7 24 13 WNW 1023,7 - 0,0
20.04.2018 12:00:00 17,3 10,7 15 8 26 14 WNW 1023,7 - 0,0
20.04.2018 11:00:00 16,0 9,9 12 7 22 12 W 1023,4 - 0,0
20.04.2018 10:00:00 21,3 11,0 5 3 11 6 ZW 1022,9 - 0,0
20.04.2018 09:00:00 18,0 11,1 8 4 10 6 Z 1022,8 - 0,0
20.04.2018 08:00:00 14,8 10,6 5 3 9 5 ZZW 1022,8 - 0,0
20.04.2018 07:00:00 13,0 10,5 0 0 0 0 N 1022,6 - 0,0
20.04.2018 06:00:00 12,3 9,7 0 0 18 10 N 1022,5 - 0,0
20.04.2018 05:00:00 13,2 9,6 10 5 16 9 WNW 1022,4 - 0,0
20.04.2018 04:00:00 16,1 11,0 5 3 11 6 Z 1022,6 - 0,0
20.04.2018 03:00:00 15,4 10,4 3 1 12 7 Z 1022,9 - 0,0
20.04.2018 02:00:00 15,1 10,9 0 0 9 5 N 1023,2 - 0,0
20.04.2018 01:00:00 14,8 11,0 3 2 9 5 Z 1023,2 - 0,0
20.04.2018 00:00:00 14,2 10,0 0 0 6 3 N 1023,4 - 0,0
19.04.2018 23:00:00 13,8 8,2 2 1 12 7 W 1023,6 - 0,0
19.04.2018 22:00:00 13,0 9,1 10 5 21 11 WNW 1023,7 - 0,0
19.04.2018 21:00:00 13,5 9,0 0 0 8 4 N 1023,3 - 0,0
19.04.2018 20:00:00 14,8 8,9 5 3 9 5 NNO 1023,1 - 0,0
19.04.2018 19:00:00 16,1 9,5 5 3 10 6 NNO 1023,3 - 0,0
19.04.2018 18:00:00 14,7 9,3 6 4 13 7 N 1023,5 - 0,0
19.04.2018 17:00:00 16,8 9,9 9 5 17 9 NO 1023,5 - 0,0
19.04.2018 16:00:00 19,6 10,6 7 4 14 7 NO 1023,7 - 0,0
19.04.2018 15:00:00 19,6 11,1 9 5 14 8 ONO 1024,2 - 0,0
19.04.2018 14:00:00 22,4 11,5 6 3 9 5 NO 1024,3 - 0,0
19.04.2018 13:00:00 18,6 10,4 9 5 22 12 NNW 1024,6 - 0,0
19.04.2018 12:00:00 22,7 9,5 18 10 27 15 Z 1024,6 - 0,0
19.04.2018 11:00:00 20,8 9,1 20 11 30 16 Z 1024,7 14 0,0
19.04.2018 10:00:00 19,1 8,4 19 11 27 14 Z 1024,7 - 0,0
19.04.2018 09:00:00 16,8 7,7 18 10 24 13 ZZO 1024,8 - 0,0
19.04.2018 08:00:00 15,6 7,4 14 8 19 10 ZZO 1024,7 18 0,0
19.04.2018 07:00:00 14,8 7,8 10 6 14 8 ZO 1024,5 - 0,0
19.04.2018 06:00:00 13,7 8,1 9 5 11 6 OZO 1024,8 - 0,0
19.04.2018 05:00:00 14,1 8,1 6 3 13 7 OZO 1025,1 - 0,0
19.04.2018 04:00:00 16,0 8,0 10 6 22 12 ZO 1025,1 - 0,0
19.04.2018 03:00:00 16,4 7,9 16 9 21 12 ZO 1025,3 - 0,0
19.04.2018 02:00:00 17,8 7,2 12 6 22 12 OZO 1025,7 - 0,0

tt = temperatuur
td = dauwpunt
ff = windsnelheid
fx = windstoten
dd = windrichting
ppp = luchtdruk
vv = zicht
rr = neerslag

Weerstations in de omgeving